Poplar Bluff, MO

7:21 PM CDT on September 20, 2019 (GMT -0500)
Poplar Bluff Municipal

Weather History for KPOF - May, 2019

Change the Weather History Date:

Friday, May 17, 2019

  Actual Average Record
Temperature  
Mean Temperature 76 °F -  
Max Temperature 87 °F 80 °F 95 °F (1944)
Min Temperature 66 °F 56 °F 40 °F (1929)
Cooling Degree Days 11    
Growing Degree Days 26 (Base 50)    
Moisture  
Dew Point 63 °F    
Average Humidity 65    
Maximum Humidity 93    
Minimum Humidity 37    
Precipitation  
Precipitation 0.00 in - - ()
Sea Level Pressure  
Sea Level Pressure 29.88 in    
Wind  
Wind Speed 8 mph (SSW)    
Max Wind Speed 18 mph    
Max Gust Speed 29 mph    
Visibility 10 miles    
Events      
Averages and records for this station are not official NWS values.
T = Trace of Precipitation, MM = Missing Value Source: NWS Daily Summary

Daily Weather History Graph

Daily Weather History Graph

Search for Another Location

Airport or City:

Astronomy

May. 17, 2019 Rise Set
Actual Time 5:52 AM CDT 8:03 PM CDT
Civil Twilight 5:23 AM CDT 8:32 PM CDT
Nautical Twilight 4:47 AM CDT 9:08 PM CDT
Astronomical Twilight 4:09 AM CDT 9:46 PM CDT
Moon 6:54 PM CDT (5/17) 5:19 AM CDT (5/17)
Length of Visible Light 15h 09m
Length of Day
14h 11m
Waxing Gibbous, 98% of the Moon is Illuminated
May 17
Waxing Gibbous
May 18
Full
May 26
Last Quarter
Jun 3
New
Jun 10
First Quarter

Hourly Weather History & Observations

Time (CDT) Temp. Heat Index Dew Point Humidity Pressure Visibility Wind Dir Wind Speed Gust Speed Precip Events Conditions
12:53 AM 73.0 °F - 66.0 °F 79% 29.85 in 10.0 mi SW 6.9 mph - N/A   Clear
1:53 AM 73.0 °F - 64.9 °F 76% 29.85 in 10.0 mi SW 6.9 mph - N/A   Clear
2:53 AM 71.1 °F - 64.9 °F 81% 29.84 in 10.0 mi SW 6.9 mph - N/A   Clear
3:53 AM 68.0 °F - 64.0 °F 87% 29.86 in 10.0 mi SSW 4.6 mph - N/A   Clear
4:53 AM 66.9 °F - 64.0 °F 90% 29.87 in 10.0 mi SSW 4.6 mph - N/A   Clear
5:53 AM 66.0 °F - 64.0 °F 93% 29.88 in 10.0 mi SW 3.5 mph - N/A   Clear
6:53 AM 66.0 °F - 64.0 °F 93% 29.90 in 9.0 mi SSW 4.6 mph - N/A   Clear
7:53 AM 70.0 °F - 66.0 °F 87% 29.91 in 10.0 mi SSW 5.8 mph - N/A   Clear
8:53 AM 75.0 °F - 66.0 °F 73% 29.92 in 10.0 mi SW 8.1 mph - N/A   Clear
9:53 AM 79.0 °F - 66.0 °F 64% 29.93 in 10.0 mi WSW 10.4 mph - N/A   Clear
10:53 AM 82.0 °F 84.1 °F 66.0 °F 58% 29.93 in 10.0 mi WSW 10.4 mph - N/A   Clear
11:53 AM 82.9 °F 84.6 °F 64.9 °F 54% 29.92 in 10.0 mi SSW 11.5 mph - N/A   Clear
12:53 PM 84.0 °F 85.4 °F 64.0 °F 51% 29.91 in 10.0 mi WSW 13.8 mph 24.2 mph N/A   Clear
1:53 PM 84.9 °F 86.1 °F 64.0 °F 49% 29.90 in 10.0 mi SW 13.8 mph 21.9 mph N/A   Clear
2:53 PM 86.0 °F 87.6 °F 64.9 °F 49% 29.88 in 10.0 mi SSW 12.7 mph - N/A   Clear
3:53 PM 86.0 °F 85.7 °F 60.1 °F 41% 29.86 in 10.0 mi SSW 18.4 mph 28.8 mph N/A   Clear
4:53 PM 86.0 °F 84.9 °F 57.0 °F 37% 29.86 in 10.0 mi SW 18.4 mph 27.6 mph N/A   Clear
5:53 PM 84.9 °F 85.0 °F 61.0 °F 44% 29.85 in 10.0 mi SSW 9.2 mph - N/A   Clear
6:53 PM 82.0 °F 82.4 °F 60.1 °F 47% 29.84 in 10.0 mi South 9.2 mph - N/A   Clear
7:53 PM 79.0 °F - 61.0 °F 54% 29.84 in 10.0 mi South 6.9 mph - N/A   Clear
8:53 PM 77.0 °F - 62.1 °F 60% 29.84 in 10.0 mi South 6.9 mph - N/A   Clear
9:53 PM 75.9 °F - 60.1 °F 58% 29.85 in 10.0 mi SSW 8.1 mph - N/A   Clear
10:53 PM 73.0 °F - 60.1 °F 64% 29.86 in 10.0 mi South 4.6 mph - N/A   Clear
11:53 PM 72.0 °F - 61.0 °F 68% 29.85 in 10.0 mi South 5.8 mph - N/A   Clear